Cardak, Turkey

8:54 AM +03 on July 19, 2018 (GMT +0300)
Cardak Air Base

Weather History for LTAY - January, 2018

Change the Weather History Date:

Sunday, January 14, 2018

  Actual Average Record
Temperature  
Mean Temperature 37 °F -  
Max Temperature 41 °F - - ()
Min Temperature 33 °F - - ()
Degree Days  
Heating Degree Days 28    
Moisture  
Dew Point 37 °F    
Average Humidity 99    
Maximum Humidity 100    
Minimum Humidity 87    
Precipitation  
Precipitation 0.00 in - - ()
Sea Level Pressure  
Sea Level Pressure 29.99 in    
Wind  
Wind Speed 5 mph ()    
Max Wind Speed 15 mph    
Max Gust Speed -    
Visibility 1.4 miles    
Events Fog , Rain    
T = Trace of Precipitation, MM = Missing Value Source: Averaged Metar Reports

Daily Weather History Graph

Daily Weather History Graph

Search for Another Location

Airport or City:

Astronomy

Jan. 14, 2018 Rise Set
Actual Time 8:15 AM +03 6:04 PM +03
Civil Twilight 7:47 AM +03 6:33 PM +03
Nautical Twilight 7:14 AM +03 7:05 PM +03
Astronomical Twilight 6:43 AM +03 7:37 PM +03
Moon 5:54 AM +03 (1/14) 4:07 PM +03 (1/14)
Length of Visible Light 10h 46m
Length of Day
9h 49m
Waning Crescent, 7% of the Moon is Illuminated
Jan 14
Waning Crescent
Jan 17
New
Jan 25
First Quarter
Jan 31
Full
Feb 7
Last Quarter

Hourly Weather History & Observations

Time (+03) Temp. Windchill Dew Point Humidity Pressure Visibility Wind Dir Wind Speed Gust Speed Precip Events Conditions
12:46 AM 39.2 °F - 37.4 °F 93% 29.89 in 0.6 mi Calm Calm - N/A Fog Patches of Fog
12:50 AM 39.2 °F - 37.4 °F 93% 29.89 in 1.4 mi Calm Calm - N/A   Mostly Cloudy
1:50 AM 37.4 °F - 37.4 °F 100% 29.89 in 0.6 mi SSE 1.2 mph - N/A Fog Patches of Fog
2:06 AM 37.4 °F - 37.4 °F 100% 29.89 in 1.6 mi SSE 1.2 mph - N/A   Mostly Cloudy
2:12 AM 39.2 °F - 37.4 °F 93% 29.89 in 3.1 mi Variable 2.3 mph - N/A   Mostly Cloudy
2:50 AM 39.2 °F - 35.6 °F 87% 29.89 in 5.0 mi Variable 2.3 mph - N/A   Mostly Cloudy
3:05 AM 39.2 °F - 35.6 °F 87% 29.89 in 1.0 mi Variable 2.3 mph - N/A   Mostly Cloudy
3:11 AM 33.8 °F 27.7 °F 33.8 °F 100% 29.89 in 0.4 mi SW 6.9 mph - N/A Fog Fog
3:47 AM 33.8 °F 29.6 °F 33.8 °F 100% 29.89 in 0.6 mi WSW 4.6 mph - N/A Fog Patches of Fog
3:50 AM 33.8 °F 29.6 °F 33.8 °F 100% 29.89 in 0.7 mi SW 4.6 mph - N/A Fog Patches of Fog
4:47 AM 35.6 °F - 35.6 °F 100% 29.89 in - Variable 1.2 mph - N/A   Mostly Cloudy
4:50 AM 35.6 °F - 35.6 °F 100% 29.89 in - Variable 2.3 mph - N/A   Mostly Cloudy
5:50 AM 35.6 °F - 35.6 °F 100% 29.89 in - Calm Calm - N/A   Mostly Cloudy
7:58 AM 37.4 °F 32.8 °F 37.4 °F 100% 29.92 in 0.7 mi WSW 5.8 mph - N/A   Mostly Cloudy
8:03 AM 37.4 °F 32.8 °F 37.4 °F 100% 29.92 in - WSW 5.8 mph - N/A Fog Patches of Fog
8:08 AM 37.4 °F 32.8 °F 37.4 °F 100% 29.92 in 0.3 mi WSW 5.8 mph - N/A Fog Fog
8:12 AM 37.4 °F 32.8 °F 37.4 °F 100% 29.92 in 0.2 mi WSW 5.8 mph - N/A Fog Fog
8:43 AM 39.2 °F - 39.2 °F 100% 29.92 in 0.3 mi Calm Calm - N/A Fog Fog
8:50 AM 37.4 °F - 37.4 °F 100% 29.92 in 0.4 mi Calm Calm - N/A Fog Patches of Fog
9:13 AM 39.2 °F - 39.2 °F 100% 29.92 in 0.3 mi Variable 1.2 mph - N/A Fog Light Drizzle
9:30 AM 39.2 °F - 39.2 °F 100% 29.92 in 0.2 mi Calm Calm - N/A Fog , Rain Light Rain
9:50 AM 39.2 °F 37.0 °F 39.2 °F 100% 29.95 in 0.4 mi WNW 3.5 mph - N/A Fog , Rain Light Rain
10:35 AM 39.2 °F 33.6 °F 39.2 °F 100% 29.95 in 2.2 mi WNW 8.1 mph - N/A   Mostly Cloudy
10:50 AM 41.0 °F 35.2 °F 41.0 °F 100% 29.95 in 2.5 mi WNW 9.2 mph - N/A   Mostly Cloudy
11:50 AM 39.2 °F 33.0 °F 39.2 °F 100% 29.98 in 3.7 mi WNW 9.2 mph - N/A   Mostly Cloudy
12:18 PM 39.2 °F 31.6 °F 39.2 °F 100% 29.98 in 1.4 mi WNW 12.7 mph - N/A   Mostly Cloudy
12:44 PM 39.2 °F 31.6 °F 39.2 °F 100% 29.98 in 0.7 mi West 12.7 mph - N/A Fog Patches of Fog
12:50 PM 37.4 °F 29.3 °F 37.4 °F 100% 29.98 in 0.3 mi WNW 12.7 mph - N/A Fog Patches of Fog
1:25 PM 39.2 °F 31.6 °F 39.2 °F 100% 29.98 in 2.5 mi WNW 12.7 mph - N/A   Mostly Cloudy
1:50 PM 39.2 °F 33.0 °F 39.2 °F 100% 29.98 in 3.7 mi WNW 9.2 mph - N/A   Mostly Cloudy
2:50 PM 39.2 °F 32.0 °F 39.2 °F 100% 30.01 in 2.8 mi WNW 11.5 mph - N/A   Mostly Cloudy
3:50 PM 39.2 °F 31.2 °F 37.4 °F 93% 30.01 in 2.8 mi WNW 13.8 mph - N/A   Mostly Cloudy
4:16 PM 37.4 °F 28.5 °F 37.4 °F 100% 30.01 in 1.9 mi WNW 15.0 mph - N/A   Mostly Cloudy
4:41 PM 37.4 °F 28.5 °F 37.4 °F 100% 30.01 in 1.0 mi WNW 15.0 mph - N/A Fog Patches of Fog
4:50 PM 37.4 °F 28.5 °F 37.4 °F 100% 30.04 in 1.1 mi WNW 15.0 mph - N/A   Mostly Cloudy
5:39 PM 37.4 °F 28.5 °F 37.4 °F 100% 30.04 in 1.0 mi WNW 15.0 mph - N/A Fog Patches of Fog
5:50 PM 37.4 °F 29.3 °F 37.4 °F 100% 30.04 in 1.6 mi WNW 12.7 mph - N/A   Mostly Cloudy
6:44 PM 37.4 °F 30.3 °F 37.4 °F 100% 30.06 in 0.9 mi WNW 10.4 mph - N/A   Mostly Cloudy
6:50 PM 37.4 °F 28.9 °F 37.4 °F 100% 30.06 in 0.5 mi WNW 13.8 mph - N/A Fog Patches of Fog
6:56 PM 37.4 °F 28.5 °F 37.4 °F 100% 30.06 in 0.3 mi WNW 15.0 mph - N/A Fog Fog
7:19 PM 37.4 °F 29.3 °F 37.4 °F 100% 30.06 in 0.3 mi WNW 12.7 mph - N/A Fog Fog
7:38 PM 37.4 °F 30.8 °F 37.4 °F 100% 30.09 in 0.4 mi WNW 9.2 mph - N/A Fog Fog
7:50 PM 37.4 °F 29.8 °F 37.4 °F 100% 30.09 in - WNW 11.5 mph - N/A Fog Fog
8:03 PM 37.4 °F 30.8 °F 37.4 °F 100% 30.09 in 0.6 mi WNW 9.2 mph - N/A Fog Patches of Fog
8:14 PM 37.4 °F 31.4 °F 37.4 °F 100% 30.09 in 1.1 mi NW 8.1 mph - N/A   Overcast
8:42 PM 37.4 °F 30.3 °F 37.4 °F 100% 30.09 in 0.7 mi West 10.4 mph - N/A Fog Patches of Fog
8:50 PM 37.4 °F 31.4 °F 37.4 °F 100% 30.12 in - West 8.1 mph - N/A Fog Patches of Fog
9:07 PM 35.6 °F 28.6 °F 35.6 °F 100% 30.12 in 1.0 mi West 9.2 mph - N/A   Overcast
9:50 PM 37.4 °F 31.4 °F 37.4 °F 100% 30.12 in 2.5 mi West 8.1 mph - N/A   Overcast
10:50 PM 35.6 °F 29.2 °F 35.6 °F 100% 30.15 in 3.7 mi WNW 8.1 mph - N/A   Mostly Cloudy
11:24 PM 35.6 °F 30.7 °F 35.6 °F 100% 30.18 in 1.6 mi West 5.8 mph - N/A   Mostly Cloudy
11:48 PM 35.6 °F - 35.6 °F 100% 30.18 in 3.7 mi Variable 2.3 mph - N/A   Mostly Cloudy
11:50 PM 35.6 °F - 35.6 °F 100% 30.18 in 3.7 mi West 2.3 mph - N/A   Mostly Cloudy